Tracking 29489 objects as of 9-Sep-2024
HD Live streaming from Space Station
objects crossing your sky now

THOR AGENA B DEB

Track THOR AGENA B DEB now!
10-day predictions


NORAD ID: 2092
Int'l Code: 1965-098H
Perigee: 508.7 km
Apogee: 2,583.1 km
Inclination: 79.9 °
Period: 116.8 minutes
Semi major axis: 7916 km
RCS: 0.1037 m2 (medium)
Launch date: November 29, 1965
Source: United States (US)
Launch site: AIR FORCE WESTERN TEST RANGE (AFWTR)

Note: This is SATELLITE DEBRIS
Your satellite tracking list
Your tracking list is empty




NASA's NSSDC Master Catalog

Two Line Element Set (TLE):
1 02092U 65098H   24252.94804344  .00007878  00000-0  25729-2 0  9999
2 02092  79.8635 192.4433 1310124 352.3024   5.9545 12.32459670600700
Source of the keplerian elements: AFSPC